Cotulla, TX

7:18 AM CST on November 21, 2019 (GMT -0600)
Cotulla-La Salle County

Weather History for KCOT - August, 2019

Change the Weather History Date:

Thursday, August 1, 2019

  Actual Average Record
Temperature  
Mean Temperature 90 °F -  
Max Temperature 104 °F 97 °F 106 °F (2012)
Min Temperature 77 °F 72 °F 33 °F (1996)
Cooling Degree Days 24    
Growing Degree Days 40 (Base 50)    
Moisture  
Dew Point 65 °F    
Average Humidity 48    
Maximum Humidity 84    
Minimum Humidity 21    
Precipitation  
Precipitation 0.00 in - - ()
Sea Level Pressure  
Sea Level Pressure 29.96 in    
Wind  
Wind Speed 8 mph (SE)    
Max Wind Speed 17 mph    
Max Gust Speed 23 mph    
Visibility 10 miles    
Events      
Averages and records for this station are not official NWS values.
T = Trace of Precipitation, MM = Missing Value Source: NWS Daily Summary

Daily Weather History Graph

Daily Weather History Graph

Search for Another Location

Airport or City:

Astronomy

Aug. 01, 2019 Rise Set
Actual Time 6:58 AM CDT 8:27 PM CDT
Civil Twilight 6:33 AM CDT 8:52 PM CDT
Nautical Twilight 6:02 AM CDT 9:23 PM CDT
Astronomical Twilight 5:30 AM CDT 9:55 PM CDT
Moon 7:26 AM CDT (8/1) 9:17 PM CDT (8/1)
Length of Visible Light 14h 19m
Length of Day
13h 28m
New Moon, 1% of the Moon is Illuminated
Aug 1
New Moon
Aug 7
First Quarter
Aug 15
Full
Aug 23
Last Quarter
Aug 30
New

Hourly Weather History & Observations

Time (CDT) Temp. Heat Index Dew Point Humidity Pressure Visibility Wind Dir Wind Speed Gust Speed Precip Events Conditions
12:53 AM 82.9 °F 85.8 °F 68.0 °F 60% 29.96 in 10.0 mi SE 8.1 mph - N/A   Clear
1:53 AM 82.0 °F 85.9 °F 70.0 °F 67% 29.96 in 10.0 mi SSE 8.1 mph - N/A   Clear
4:53 AM 78.1 °F - 70.0 °F 76% 29.96 in 10.0 mi SE 6.9 mph - N/A   Clear
5:53 AM 77.0 °F - 71.1 °F 82% 29.96 in 10.0 mi SE 6.9 mph - N/A   Clear
6:53 AM 77.0 °F - 72.0 °F 84% 29.98 in 10.0 mi ESE 4.6 mph - N/A   Clear
7:53 AM 78.1 °F - 73.0 °F 84% 30.00 in 10.0 mi East 6.9 mph - N/A   Clear
8:53 AM 82.0 °F 87.4 °F 73.0 °F 74% 30.02 in 10.0 mi SE 6.9 mph - N/A   Clear
9:53 AM 86.0 °F 91.5 °F 71.1 °F 61% 30.01 in 10.0 mi SE 4.6 mph - N/A   Clear
10:53 AM 90.0 °F 93.6 °F 68.0 °F 48% 30.01 in 10.0 mi ESE 8.1 mph - N/A   Clear
11:53 AM 91.9 °F 93.3 °F 64.0 °F 39% 30.01 in 10.0 mi Variable 5.8 mph - N/A   Clear
12:53 PM 96.1 °F 96.9 °F 62.1 °F 32% 30.00 in 10.0 mi SE 10.4 mph - N/A   Clear
1:53 PM 97.0 °F 97.4 °F 61.0 °F 30% 29.98 in 10.0 mi North - - N/A   Scattered Clouds
2:53 PM 98.1 °F 98.1 °F 60.1 °F 28% 29.96 in 10.0 mi South 4.6 mph 18.4 mph N/A   Scattered Clouds
3:53 PM 102.0 °F 102.2 °F 59.0 °F 24% 29.93 in 10.0 mi ESE 17.3 mph 21.9 mph N/A   Scattered Clouds
4:53 PM 102.9 °F 101.9 °F 55.9 °F 21% 29.91 in 10.0 mi ESE 15.0 mph - N/A   Partly Cloudy
5:53 PM 100.9 °F 100.0 °F 57.0 °F 23% 29.89 in 10.0 mi Variable 5.8 mph - N/A   Clear
6:53 PM 100.9 °F 100.0 °F 57.0 °F 23% 29.88 in 10.0 mi East 12.7 mph 16.1 mph N/A   Clear
7:53 PM 98.1 °F 96.8 °F 57.0 °F 25% 29.88 in 10.0 mi East 9.2 mph - N/A   Clear
8:53 PM 95.0 °F 94.8 °F 60.1 °F 31% 29.90 in 10.0 mi East 13.8 mph 23.0 mph N/A   Clear
9:53 PM 91.0 °F 93.0 °F 64.9 °F 42% 29.93 in 10.0 mi SE 12.7 mph - N/A   Clear
10:53 PM 89.1 °F 91.0 °F 64.9 °F 45% 29.94 in 10.0 mi SSE 13.8 mph - N/A   Clear
11:53 PM 86.0 °F 89.4 °F 68.0 °F 55% 29.95 in 10.0 mi SSE 10.4 mph - N/A   Clear